DMSP 5D-2 F14 DEB, 63155

Orbit data source: Space-Track

DMSP 5D-2 F14 DEB, 63155 is space debris in SSO originally from a launch on Fri, 04 Apr 1997 UTC launched from the Air Force Western Test Range (AFWTR). Debris objects in space refer to the collection of defunct objects orbiting the Earth. Examples of debris include non-operational satellites, rocket bodies, and fragments generated from explosions, collisions, or faulty payload assembly.

Loading next visibility...
Identifier
63155, 1997-012V
Orbit
SSO
Country
Flag of USUS
Related business
Manufacturer
LMT/EW
Mission
Spacecraft
Bus & Motor
Unknown
Mass
Unknown
Launch date (UTC)
1997-04-04 (29 years ago)
Launch vehicle
Unknown
Launch site
Air Force Western Test Range (AFWTR)
Object type
Payload
Rocket body
Debris
Shape & HBR
Unknown shape, 0.1 m
Radar Cross Section
Medium (>0.1 m² and <1 m²)

Expand to show TLE details & history
Last TLE update: 1 day ago

TLE from 1 day ago
0 DMSP 5D-2 F14 DEB
1 63155U 97012V   26170.63317742  .00002272  00000-0  96668-3 0  9999
2 63155  98.8430 229.5387 0032886  42.4675 317.9040 14.25941591 69263
Epoch: 2026-06-19T15:11Z
TLE epoch observation values (Epoch: 2026-06-19T15:11:46.529Z)
Latitude
-0°
Longitude
93.73548°
Altitude
790.749 km
Speed
7.467 km/s
True Right ascension
15h 18m 09s
True Declination
0° 00' 00"
Sunlit
Object was in full shadow at epoch
Visualization orbit readout
Latitude
Unknown
Longitude
Unknown
Altitude
Unknown
Speed
Unknown
Apparent Right ascension
Unknown
Apparent Declination
Unknown
Sunlit
N/A
Visualization observer readout
Local Sidereal Time
07:12:09
Azimuth
Unknown
Elevation
Unknown
Doppler factor
Unknown
Orbital elements
Apogee altitude
826.1 km
Perigee altitude
778.871 km
Semi-major axis
7,180.623 km
Eccentricity
0.00329
Inclination
98.843°
RAAN
229.5387°
Arg. of periapsis
42.4675°
True anomaly
317.6506°
Mean anomaly
317.904°
Eccentric anomaly
317.77738°
Mean motion
3.56697 °/min
Orbital period
100.93 mins
BSTAR
0.00096668
Loading maneuver chart data...
Computing Atmospheric mass density...

Documentation

Showing up to 5 results
|